Wind_Speed
13 31 50 63 80 95 99 99 98 100 104 107 107 107 107 109 112 109 109 109 106 108 109 108 110 110 107 104 103 100 98 90 87 93 99 103 102 100 99 101 102 102 101 106
6 19 43 57 69 84 92 95 91 92 93 96 97 98 100 102 105 109 108 108 108 108 110 111 112 112 111 112 110 112 112 107 103 102 104 106 107 106 105 107 109 107 111 111
14 11 23 45 62 74 83 87 86 82 87 87 89 89 92 97 102 103 101 104 107 108 107 110 112 113 115 114 114 117 117 118 116 117 116 117 117 118 118 120 118 117 115 112
19 9 14 27 43 56 64 69 75 78 83 79 80 76 79 90 95 95 95 96 96 98 100 103 108 109 111 110 108 109 111 112 118 120 121 120 122 123 120 120 121 114 107 101
7 7 8 18 34 43 52 61 65 68 73 75 73 71 72 79 83 86 89 92 93 95 96 97 98 100 100 100 101 103 104 108 108 107 111 114 114 112 108 107 107 110 103 98
14 11 9 8 17 27 39 48 53 59 63 63 66 69 66 74 76 78 81 82 84 87 91 92 93 94 97 98 100 103 102 100 98 97 99 102 101 98 98 98 97 97 95 92
20 21 18 19 16 16 29 38 42 48 53 57 66 67 67 72 74 75 72 73 75 75 77 83 86 85 86 89 91 92 96 99 102 101 98 96 96 97 97 97 96 96 95 93
31 30 30 27 27 26 25 24 28 40 48 52 57 56 61 65 70 70 74 74 73 73 75 78 81 81 82 82 82 84 86 88 88 89 91 93 94 94 95 94 93 90 88 85
41 41 38 37 37 34 36 34 37 39 41 42 46 55 67 67 72 75 76 75 74 73 73 76 80 80 81 81 83 84 84 83 85 86 87 88 88 90 89 84 80 75 72 71
49 48 47 44 43 45 46 46 46 43 41 40 40 47 55 56 57 62 69 71 71 71 73 74 72 72 74 75 76 75 72 74 74 75 76 73 71 73 73 74 74 75 75 75
59 54 57 54 53 53 51 50 51 50 47 49 49 52 57 54 54 56 64 63 61 61 61 59 61 62 61 64 66 67 68 64 66 69 70 70 72 73 76 80 81 80 81 82
61 61 63 63 62 63 62 59 60 56 53 52 52 52 57 61 62 61 65 66 65 63 61 58 61 63 62 66 74 76 68 69 71 73 76 77 78 79 80 83 85 87 87 88
67 66 65 65 70 74 69 69 68 63 64 61 63 55 63 63 63 64 65 69 69 72 70 70 68 68 69 74 77 80 83 83 83 83 84 86 88 89 89 91 93 94 95 96
76 76 75 73 75 76 71 72 74 74 69 66 66 67 68 71 70 69 71 71 72 75 75 76 74 77 80 82 84 87 90 93 94 95 95 96 100 100 101 101 102 102 103 105
76 80 83 82 81 84 83 78 76 78 74 75 73 73 73 77 73 72 75 73 79 78 79 81 80 81 82 83 84 88 95 99 102 103 105 106 109 110 110 110 109 110 110 110
80 82 82 81 86 87 86 85 84 82 83 84 82 76 81 83 76 74 76 80 79 81 84 84 82 82 88 91 89 91 93 97 101 104 106 109 113 116 116 116 116 113 114 116
65 73 74 77 82 83 82 89 90 89 89 89 88 83 83 86 83 85 82 82 86 84 82 82 86 89 89 90 90 92 93 93 94 96 99 101 101 104 104 102 100 98 96 97
55 56 58 64 65 64 70 78 82 85 90 92 94 91 92 91 88 91 90 88 85 84 86 86 85 85 87 86 82 77 75 76 79 84 89 90 91 91 93 91 92 90 86 86
44 46 48 53 57 61 64 64 65 67 70 74 79 83 84 85 86 86 84 83 83 84 83 81 77 73 70 68 65 65 67 71 74 78 80 79 77 73 70 70 72 71 68 71
34 34 35 38 41 45 50 53 56 60 59 60 58 61 60 61 62 65 65 67 68 67 65 63 61 59 57 56 54 58 61 60 58 61 60 59 58 56 55 54 55 55 52 53
23 23 24 25 26 29 33 35 37 40 42 45 46 50 52 52 53 55 55 53 51 51 51 49 46 44 47 48 46 33 39 45 45 45 42 42 41 39 37 36 36 36 38 41
13 13 13 15 18 21 24 25 27 28 31 35 38 39 40 41 43 42 43 42 39 37 36 35 37 40 31 19 21 29 30 29 29 27 29 34 36 34 30 30 30 30 31 32
10 10 10 12 13 14 17 18 20 22 25 27 27 30 31 31 31 30 30 30 31 31 30 26 13 6 3 4 5 6 13 17 19 20 26 30 34 32 30 28 28 27 28 30
11 11 11 12 12 13 14 17 19 21 19 21 22 22 21 22 22 23 25 25 24 14 6 7 10 13 12 7 3 10 18 21 25 29 34 34 32 26 26 28 28 31 30 28
11 10 9 7 9 10 12 14 13 12 14 18 18 18 18 18 19 18 13 7 12 17 19 21 16 13 12 10 14 18 24 28 34 40 40 41 36 32 32 31 30 28 25 26
10 9 9 9 9 10 11 13 15 17 18 15 14 14 14 12 8 14 18 23 24 25 23 18 14 9 11 18 19 20 25 33 40 46 45 44 38 38 39 38 34 28 22 19
Wind_Direction
258 225 214 209 214 215 218 222 223 224 226 226 227 229 233 237 239 241 243 244 245 248 250 252 254 255 256 257 257 256 256 257 259 259 260 262 267 267 267 269 270 271 271 273
316 232 221 213 215 217 221 225 226 227 230 231 231 233 236 239 242 242 243 245 247 251 252 252 254 255 256 258 260 264 262 259 261 257 257 260 263 264 264 271 274 277 280 280
343 272 235 225 218 219 224 228 231 233 234 234 233 233 237 241 242 244 244 246 248 250 254 255 255 256 256 257 260 262 264 266 265 266 265 269 272 273 275 276 279 281 281 281
357 322 236 225 227 228 230 232 233 234 235 235 237 235 237 241 245 246 247 246 247 249 252 255 255 256 258 260 262 263 264 266 266 266 268 268 269 271 273 273 274 278 281 280
309 325 312 240 230 230 233 233 234 236 236 236 239 237 242 243 246 247 247 247 247 248 251 254 257 259 259 260 262 262 262 263 267 270 269 269 270 272 274 275 275 275 277 279
236 239 261 244 232 234 235 235 235 238 239 238 240 239 239 243 243 245 248 249 249 250 251 254 257 258 259 259 260 261 265 267 268 268 269 269 270 271 272 273 275 275 275 276
251 226 233 233 248 249 236 237 235 234 234 234 237 240 240 244 247 249 252 253 255 257 256 256 256 258 259 260 261 262 263 264 266 266 268 271 272 272 272 273 272 274 276 277
236 238 239 242 236 232 233 241 240 236 234 234 242 242 245 246 248 248 250 251 251 251 254 256 258 258 259 259 260 260 260 262 266 268 268 268 268 269 270 271 273 273 273 275
240 239 233 233 238 246 246 247 240 232 230 234 242 243 243 245 247 250 251 252 253 255 256 258 260 259 259 261 262 264 265 267 266 267 269 270 271 271 272 274 275 275 276 276
243 241 240 236 234 236 239 240 240 241 236 235 239 247 249 245 250 253 254 253 254 255 257 259 262 264 265 265 265 266 266 265 266 266 267 269 274 274 274 274 273 273 273 275
246 244 246 242 239 237 238 241 245 246 244 245 243 245 253 253 249 254 256 257 253 253 253 253 257 261 265 265 266 265 264 266 267 268 268 269 270 271 275 276 275 275 275 275
241 242 242 249 249 248 246 243 245 247 247 247 248 254 257 260 261 260 264 266 266 262 259 259 260 263 269 274 273 269 266 266 267 269 271 272 271 270 269 269 273 276 275 276
244 242 241 242 246 250 248 249 247 246 245 245 247 245 250 252 256 259 261 265 267 267 268 267 266 267 266 265 270 274 275 275 274 272 272 271 271 270 270 270 272 273 274 276
246 246 244 241 243 247 248 249 246 247 247 246 249 249 250 253 255 257 259 262 266 271 272 270 271 270 270 270 269 270 272 273 274 274 274 274 275 275 275 274 274 274 275 276
247 247 247 245 246 249 248 248 249 250 249 249 249 252 253 255 253 255 261 263 265 265 268 270 271 271 272 272 272 272 275 275 274 274 275 275 275 275 276 276 277 278 279 280
247 246 247 247 248 248 250 251 251 250 251 251 251 255 255 256 260 261 261 265 266 267 267 268 271 274 271 270 274 274 274 276 278 279 278 278 277 276 277 278 278 277 277 277
256 254 255 252 251 249 250 249 250 250 251 252 255 255 255 258 259 262 264 265 268 270 270 269 270 273 276 277 276 278 279 279 279 280 281 282 280 278 278 278 279 276 274 274
260 258 255 253 254 253 250 250 251 251 251 251 252 252 254 257 261 263 266 268 267 268 269 271 273 275 276 279 281 281 283 284 284 282 281 282 283 283 282 280 277 276 275 273
262 258 254 252 251 250 251 251 250 251 251 252 253 256 257 258 260 261 262 263 264 266 269 271 274 277 280 282 285 285 285 286 288 288 288 289 289 287 283 278 276 277 272 270
261 257 252 249 248 246 246 247 248 250 251 251 252 256 257 256 257 258 259 260 263 266 271 274 277 280 282 282 286 288 291 293 295 295 292 292 292 290 286 282 275 270 269 271
260 254 250 247 245 246 247 246 248 249 250 251 250 250 253 255 256 259 263 267 269 270 272 275 278 280 283 288 292 292 288 290 288 289 298 300 298 296 294 291 287 283 278 272
242 239 235 229 230 236 241 244 245 246 246 246 248 252 254 256 259 263 266 269 274 275 273 277 278 282 285 289 279 283 286 283 295 302 313 317 316 314 309 307 302 293 283 275
220 224 226 230 232 235 240 245 245 245 247 251 253 252 257 261 263 267 270 270 272 276 278 280 269 279 324 234 262 285 286 306 322 334 334 328 325 311 309 309 306 298 288 279
227 233 237 238 239 240 242 245 245 245 253 255 257 259 259 265 271 272 270 271 271 266 206 135 116 131 135 121 64 19 17 15 8 6 1 350 336 315 320 323 314 303 297 286
225 231 237 244 247 240 241 254 262 261 254 252 255 263 264 260 262 266 259 196 144 125 121 131 135 136 102 66 39 23 20 16 10 7 4 358 343 338 332 324 322 311 295 289
220 225 233 242 261 263 253 251 252 253 252 260 258 254 254 252 195 150 133 127 127 133 137 133 121 83 65 35 14 17 13 15 11 10 3 354 345 343 336 331 326 322 308 295
Height
10590 10595 10602 10610 10624 10636 10650 10660 10671 10681 10684 10696 10713 10727 10737 10742 10752 10767 10774 10783 10791 10781 10786 10795 10796 10801 10813 10816 10815 10815 10818 10829 10837 10835 10829 10828 10833 10836 10836 10830 10831 10836 10838 10831
10595 10597 10603 10610 10620 10632 10643 10655 10668 10678 10684 10697 10713 10723 10730 10737 10740 10748 10757 10764 10771 10767 10769 10776 10780 10786 10793 10795 10802 10799 10800 10808 10813 10816 10812 10810 10809 10812 10818 10812 10809 10810 10818 10818
10600 10600 10605 10612 10620 10628 10639 10650 10663 10674 10674 10686 10697 10711 10721 10722 10723 10727 10742 10748 10754 10754 10751 10755 10762 10769 10774 10781 10785 10784 10782 10786 10794 10789 10795 10791 10790 10790 10790 10787 10787 10787 10792 10802
10604 10604 10606 10612 10619 10627 10636 10644 10653 10658 10663 10681 10687 10703 10711 10708 10708 10717 10724 10731 10736 10736 10734 10734 10744 10752 10758 10765 10769 10771 10767 10762 10762 10767 10768 10775 10773 10770 10768 10769 10771 10768 10770 10779
10608 10607 10608 10611 10616 10621 10627 10634 10641 10648 10657 10668 10679 10691 10694 10691 10695 10697 10700 10703 10712 10718 10721 10722 10727 10734 10742 10745 10746 10748 10746 10741 10745 10743 10742 10744 10747 10747 10747 10747 10748 10749 10754 10756
10604 10606 10608 10609 10613 10617 10622 10627 10632 10639 10649 10660 10662 10669 10677 10666 10671 10675 10679 10688 10695 10701 10704 10712 10712 10716 10722 10725 10724 10723 10728 10727 10726 10721 10717 10719 10725 10727 10726 10724 10724 10729 10733 10737
10599 10601 10604 10605 10608 10611 10614 10617 10623 10629 10637 10645 10639 10653 10657 10654 10656 10664 10674 10679 10681 10686 10692 10688 10695 10702 10701 10702 10706 10707 10706 10703 10701 10705 10703 10702 10702 10702 10702 10704 10704 10707 10710 10711
10594 10596 10596 10599 10603 10606 10609 10611 10616 10621 10626 10631 10635 10647 10644 10648 10643 10652 10651 10656 10664 10668 10672 10674 10675 10680 10683 10684 10687 10685 10685 10686 10687 10683 10683 10683 10682 10679 10678 10678 10681 10686 10688 10690
10583 10584 10588 10591 10593 10597 10599 10603 10604 10610 10615 10620 10624 10625 10615 10633 10633 10631 10636 10644 10652 10657 10659 10657 10657 10660 10662 10666 10666 10666 10669 10671 10668 10665 10660 10656 10657 10658 10661 10661 10660 10663 10665 10667
10573 10575 10577 10580 10584 10584 10585 10587 10591 10598 10604 10609 10612 10607 10605 10620 10621 10620 10617 10628 10635 10639 10641 10642 10641 10641 10642 10643 10644 10647 10649 10646 10646 10642 10643 10643 10639 10637 10637 10638 10639 10641 10645 10645
10559 10567 10562 10567 10569 10570 10574 10578 10579 10585 10595 10598 10602 10599 10595 10607 10612 10607 10600 10610 10620 10622 10623 10625 10626 10626 10628 10627 10625 10624 10625 10630 10629 10626 10626 10627 10625 10623 10618 10611 10613 10619 10620 10618
10545 10547 10552 10553 10555 10556 10558 10564 10565 10572 10581 10586 10589 10594 10592 10591 10593 10598 10593 10594 10600 10603 10610 10616 10615 10613 10614 10609 10599 10599 10611 10612 10610 10608 10605 10605 10604 10604 10603 10599 10593 10591 10595 10592
10525 10530 10536 10539 10536 10533 10545 10548 10551 10556 10561 10569 10568 10583 10571 10574 10578 10581 10582 10578 10584 10584 10591 10593 10598 10602 10600 10593 10589 10586 10584 10584 10584 10586 10584 10581 10578 10577 10578 10574 10571 10569 10569 10567
10503 10507 10511 10520 10520 10516 10524 10528 10533 10535 10543 10552 10555 10560 10561 10559 10564 10568 10567 10569 10570 10568 10569 10570 10578 10576 10575 10577 10575 10573 10567 10562 10561 10560 10559 10555 10547 10546 10545 10545 10543 10543 10540 10538
10481 10486 10487 10497 10501 10495 10503 10510 10514 10518 10526 10529 10536 10539 10541 10538 10550 10553 10551 10558 10552 10555 10556 10555 10556 10556 10557 10557 10555 10550 10542 10540 10536 10534 10529 10526 10520 10515 10514 10512 10513 10510 10507 10506
10461 10464 10465 10476 10475 10481 10487 10491 10494 10499 10501 10506 10514 10525 10518 10517 10532 10537 10537 10532 10537 10537 10536 10537 10539 10540 10533 10527 10533 10531 10525 10519 10510 10502 10496 10493 10488 10482 10481 10480 10479 10482 10477 10467
10443 10441 10445 10453 10451 10460 10469 10464 10472 10479 10481 10484 10492 10504 10508 10503 10509 10510 10515 10520 10515 10516 10519 10520 10515 10511 10510 10509 10506 10505 10500 10496 10488 10479 10469 10459 10453 10446 10443 10441 10439 10436 10439 10436
10416 10419 10424 10426 10429 10439 10443 10443 10449 10455 10459 10466 10470 10480 10481 10485 10492 10488 10494 10496 10497 10498 10496 10496 10498 10496 10491 10487 10483 10481 10477 10471 10463 10453 10442 10432 10425 10419 10412 10406 10402 10399 10401 10400
10399 10400 10405 10407 10411 10417 10420 10426 10430 10434 10440 10447 10452 10455 10463 10467 10470 10468 10473 10474 10475 10477 10478 10478 10478 10476 10472 10469 10465 10461 10455 10446 10439 10429 10417 10405 10395 10389 10383 10378 10373 10371 10372 10370
10384 10386 10389 10392 10397 10400 10404 10409 10415 10419 10426 10429 10438 10439 10445 10448 10450 10450 10454 10458 10459 10461 10462 10463 10461 10460 10455 10451 10448 10443 10435 10427 10419 10411 10401 10391 10379 10370 10362 10357 10353 10350 10350 10347
10376 10378 10381 10384 10388 10391 10395 10400 10404 10408 10414 10417 10423 10424 10428 10432 10436 10438 10440 10444 10447 10448 10447 10448 10447 10442 10437 10436 10434 10429 10423 10417 10409 10399 10387 10375 10364 10355 10347 10341 10336 10334 10332 10331
10371 10373 10376 10379 10381 10384 10387 10391 10395 10399 10402 10405 10408 10413 10418 10421 10423 10427 10428 10430 10432 10434 10433 10434 10431 10427 10428 10426 10424 10422 10416 10409 10399 10390 10379 10368 10356 10346 10338 10332 10328 10324 10323 10320
10369 10371 10374 10376 10378 10381 10383 10386 10389 10391 10394 10398 10402 10405 10408 10411 10415 10417 10419 10420 10419 10420 10420 10420 10420 10419 10421 10422 10423 10418 10411 10402 10393 10383 10373 10363 10352 10342 10334 10326 10320 10316 10313 10309
10367 10369 10371 10373 10375 10378 10380 10382 10383 10386 10390 10393 10395 10398 10402 10404 10406 10408 10408 10409 10409 10411 10412 10413 10415 10419 10422 10421 10418 10412 10404 10396 10386 10375 10365 10357 10346 10335 10327 10319 10313 10306 10302 10300
10364 10366 10368 10370 10372 10374 10376 10378 10381 10384 10385 10387 10389 10393 10396 10397 10399 10399 10400 10402 10405 10407 10410 10414 10418 10421 10420 10418 10414 10408 10400 10391 10382 10371 10360 10349 10339 10327 10318 10311 10304 10298 10294 10289
10363 10365 10366 10368 10371 10372 10374 10375 10376 10377 10379 10383 10386 10387 10388 10390 10392 10395 10398 10402 10405 10409 10414 10417 10420 10420 10418 10414 10410 10404 10397 10388 10378 10367 10355 10346 10334 10321 10311 10301 10293 10286 10282 10280